DHSTA EDFZ-ZZZZ

Flight info

Callsign DHSTA
Flight time N/A
Altitude 1000
Route VFR
Aircraft B06/L-VGDW/C

Departure

Time 2026-04-26 16:25
Airport Mainz-Finthen Airfield (EDFZ)

Arrival

Time N/A
Airport ZZZZ
Time Latitude Longitude Altitude Speed Heading
2026-04-26 16:01 49.97149 8.14921 738 ft 0 kts 253°
2026-04-26 16:07 49.97154 8.14921 745 ft 2 kts 211°
2026-04-26 16:07 49.97147 8.14899 748 ft 2 kts 174°
2026-04-26 16:07 49.97091 8.14866 751 ft 18 kts 263°
2026-04-26 16:08 49.97029 8.14787 753 ft 7 kts 221°
2026-04-26 16:08 49.97020 8.14757 772 ft 3 kts 110°
2026-04-26 16:08 49.97027 8.14700 922 ft 8 kts 120°
2026-04-26 16:08 49.97019 8.14692 1070 ft 3 kts 136°
2026-04-26 16:09 49.96951 8.14701 1172 ft 5 kts 103°
2026-04-26 16:09 49.96983 8.14874 1221 ft 37 kts 42°
2026-04-26 16:09 49.96838 8.15478 1017 ft 82 kts 140°
2026-04-26 16:09 49.96318 8.15804 1073 ft 79 kts 156°
2026-04-26 16:10 49.95800 8.16053 1104 ft 81 kts 146°
2026-04-26 16:10 49.95350 8.16663 1017 ft 82 kts 117°
2026-04-26 16:10 49.95014 8.17240 1161 ft 74 kts 133°
2026-04-26 16:10 49.94643 8.17892 1066 ft 83 kts 111°
2026-04-26 16:11 49.94391 8.18651 1152 ft 71 kts 110°
2026-04-26 16:11 49.94179 8.19418 1059 ft 87 kts 101°
2026-04-26 16:11 49.94041 8.20252 1156 ft 74 kts 103°
2026-04-26 16:11 49.93864 8.21097 1159 ft 89 kts 100°
2026-04-26 16:12 49.93751 8.22078 1129 ft 94 kts 94°
2026-04-26 16:12 49.93663 8.23113 1060 ft 96 kts 92°
2026-04-26 16:12 49.93434 8.25131 1042 ft 93 kts 99°
2026-04-26 16:13 49.93264 8.26125 1020 ft 98 kts 98°
2026-04-26 16:13 49.93235 8.27173 1029 ft 98 kts 81°
2026-04-26 16:13 49.93277 8.28164 1162 ft 88 kts 85°
2026-04-26 16:13 49.93288 8.29190 1127 ft 98 kts 87°
2026-04-26 16:14 49.93217 8.30309 1006 ft 106 kts 94°
2026-04-26 16:14 49.93108 8.31437 884 ft 107 kts 91°
2026-04-26 16:14 49.92898 8.33705 732 ft 102 kts 90°
2026-04-26 16:15 49.92825 8.34808 676 ft 103 kts 92°
2026-04-26 16:15 49.92828 8.35926 606 ft 104 kts 82°
2026-04-26 16:15 49.92794 8.37005 672 ft 99 kts 102°
2026-04-26 16:16 49.92260 8.38996 770 ft 100 kts 115°
2026-04-26 16:16 49.91928 8.39999 674 ft 109 kts 103°
2026-04-26 16:16 49.91743 8.41113 627 ft 106 kts 95°
2026-04-26 16:16 49.91727 8.42244 593 ft 103 kts 83°
2026-04-26 16:17 49.91693 8.43338 659 ft 96 kts 98°
2026-04-26 16:17 49.91391 8.44250 754 ft 99 kts 123°
2026-04-26 16:17 49.90950 8.45172 626 ft 109 kts 116°
2026-04-26 16:17 49.90658 8.46220 587 ft 106 kts 98°
2026-04-26 16:18 49.90570 8.47246 843 ft 87 kts 94°
2026-04-26 16:18 49.90344 8.49228 958 ft 103 kts 95°
2026-04-26 16:19 49.90061 8.51330 1067 ft 101 kts 97°
2026-04-26 16:19 49.89885 8.52406 1079 ft 101 kts 98°
2026-04-26 16:19 49.89621 8.54448 1292 ft 100 kts 93°
2026-04-26 16:20 49.89572 8.55565 1191 ft 106 kts 80°
2026-04-26 16:20 49.89850 8.57766 1185 ft 95 kts 75°
2026-04-26 16:20 49.90015 8.58763 1224 ft 98 kts 66°
2026-04-26 16:21 49.90250 8.59795 1154 ft 106 kts 67°
2026-04-26 16:21 49.90511 8.60810 1148 ft 101 kts 41°
2026-04-26 16:21 49.91197 8.61089 1010 ft 108 kts
2026-04-26 16:21 49.91938 8.61257 934 ft 105 kts
2026-04-26 16:22 49.92685 8.61457 785 ft 109 kts
2026-04-26 16:22 49.93441 8.61462 728 ft 108 kts 357°
2026-04-26 16:22 49.94152 8.61303 805 ft 103 kts 352°
2026-04-26 16:22 49.94860 8.61151 792 ft 106 kts 354°
2026-04-26 16:23 49.95577 8.60980 895 ft 99 kts 353°
2026-04-26 16:23 49.96244 8.60800 1068 ft 95 kts 354°
2026-04-26 16:23 49.96922 8.60649 1098 ft 102 kts 354°
2026-04-26 16:23 49.97648 8.60476 1031 ft 108 kts 352°
2026-04-26 16:24 49.98397 8.60272 942 ft 109 kts 351°
2026-04-26 16:24 49.99125 8.60080 941 ft 105 kts 351°
2026-04-26 16:24 49.99827 8.59892 1062 ft 95 kts 354°
2026-04-26 16:24 50.00506 8.59763 1087 ft 99 kts 358°
2026-04-26 16:25 50.01143 8.59355 1137 ft 100 kts 309°
2026-04-26 16:25 50.00951 8.58494 1339 ft 96 kts 193°
2026-04-26 16:25 50.00503 8.58967 1430 ft 85 kts 88°
2026-04-26 16:25 50.00905 8.59516 1459 ft 88 kts
2026-04-26 16:26 50.01392 8.58854 1268 ft 111 kts 287°
2026-04-26 16:26 50.01093 8.57888 1274 ft 104 kts 193°
2026-04-26 16:26 50.00632 8.58439 1217 ft 94 kts 88°
2026-04-26 16:26 50.00966 8.59154 1225 ft 87 kts 15°
2026-04-26 16:27 50.01511 8.58813 1182 ft 104 kts 297°
2026-04-26 16:27 50.01266 8.57798 1100 ft 110 kts 205°
2026-04-26 16:27 50.00756 8.58115 1224 ft 79 kts 88°
2026-04-26 16:27 50.01138 8.58877 829 ft 112 kts 25°
2026-04-26 16:28 50.01873 8.59256 680 ft 107 kts 14°
2026-04-26 16:28 50.02556 8.59526 745 ft 96 kts 15°
2026-04-26 16:28 50.03199 8.59763 834 ft 95 kts 15°
2026-04-26 16:28 50.03836 8.60039 880 ft 96 kts 17°
2026-04-26 16:29 50.04473 8.60357 922 ft 96 kts 23°
2026-04-26 16:29 50.05110 8.60708 906 ft 99 kts 17°
2026-04-26 16:29 50.05793 8.60999 797 ft 105 kts 14°
2026-04-26 16:29 50.06502 8.61224 717 ft 103 kts 12°
2026-04-26 16:30 50.07193 8.61461 742 ft 97 kts 13°
2026-04-26 16:30 50.07817 8.61692 936 ft 88 kts 15°
2026-04-26 16:30 50.08401 8.62046 1041 ft 91 kts 37°
2026-04-26 16:30 50.08835 8.62758 1032 ft 95 kts 45°
2026-04-26 16:31 50.09395 8.63077 1069 ft 97 kts 336°
2026-04-26 16:31 50.09552 8.62096 970 ft 103 kts 241°
2026-04-26 16:31 50.08995 8.61701 915 ft 88 kts 151°
2026-04-26 16:31 50.08736 8.62406 913 ft 75 kts 79°
2026-04-26 16:32 50.09032 8.63026 961 ft 74 kts 17°
2026-04-26 16:32 50.09358 8.62845 1001 ft 81 kts 314°
2026-04-26 16:32 50.08991 8.62664 905 ft 82 kts 100°
2026-04-26 16:32 50.09057 8.63507 847 ft 75 kts 65°
2026-04-26 16:33 50.09246 8.64220 1044 ft 71 kts 63°
2026-04-26 16:33 50.09486 8.65041 1092 ft 84 kts 62°
2026-04-26 16:33 50.09723 8.65778 1422 ft 73 kts 59°
2026-04-26 16:33 50.10041 8.66584 1368 ft 98 kts 53°
2026-04-26 16:34 50.10442 8.67481 1321 ft 101 kts 55°
2026-04-26 16:34 50.10706 8.68498 1341 ft 101 kts 73°
2026-04-26 16:34 50.10624 8.69566 1485 ft 97 kts 96°
2026-04-26 16:34 50.10506 8.70605 1473 ft 106 kts 87°
2026-04-26 16:35 50.10598 8.71790 1321 ft 110 kts 70°
2026-04-26 16:35 50.10874 8.72893 1168 ft 110 kts 60°
2026-04-26 16:35 50.11240 8.73921 1068 ft 108 kts 52°
2026-04-26 16:35 50.11435 8.75039 1006 ft 110 kts 90°
2026-04-26 16:36 50.11044 8.76027 1072 ft 110 kts 139°
2026-04-26 16:36 50.10345 8.76213 1390 ft 101 kts 182°
2026-04-26 16:36 50.09575 8.76191 1356 ft 118 kts 172°
2026-04-26 16:36 50.08746 8.76329 1323 ft 120 kts 167°
2026-04-26 16:37 50.07920 8.76556 1302 ft 119 kts 163°
2026-04-26 16:37 50.07091 8.76805 1249 ft 114 kts 167°
2026-04-26 16:37 50.06303 8.76995 1275 ft 116 kts 165°
2026-04-26 16:37 50.05476 8.77139 1198 ft 121 kts 172°
2026-04-26 16:38 50.04647 8.77311 1148 ft 122 kts 168°
2026-04-26 16:38 50.03795 8.77263 1180 ft 117 kts 184°
2026-04-26 16:38 50.02995 8.77080 1194 ft 121 kts 177°
2026-04-26 16:38 50.02151 8.76792 1133 ft 123 kts 206°
2026-04-26 16:39 50.01444 8.76104 1159 ft 120 kts 218°
2026-04-26 16:39 50.00937 8.75103 1235 ft 115 kts 243°
2026-04-26 16:39 50.00608 8.73968 1251 ft 116 kts 249°
2026-04-26 16:39 50.00264 8.72801 1186 ft 121 kts 242°
2026-04-26 16:40 49.99884 8.71603 1120 ft 119 kts 244°
2026-04-26 16:40 49.99544 8.70461 1097 ft 115 kts 247°
2026-04-26 16:40 49.99227 8.69295 985 ft 117 kts 245°
2026-04-26 16:40 49.98747 8.68282 931 ft 118 kts 225°
2026-04-26 16:41 49.98283 8.67223 930 ft 113 kts 241°
2026-04-26 16:41 49.97925 8.66116 915 ft 118 kts 243°
2026-04-26 16:41 49.97520 8.65014 867 ft 112 kts 240°
2026-04-26 16:41 49.97141 8.64071 840 ft 96 kts 235°
2026-04-26 16:42 49.96807 8.63228 763 ft 84 kts 230°
2026-04-26 16:42 49.96350 8.62802 681 ft 73 kts 171°
2026-04-26 16:42 49.96055 8.63247 511 ft 56 kts 83°
2026-04-26 16:42 49.96062 8.63781 444 ft 35 kts 72°
2026-04-26 16:43 49.96076 8.64082 433 ft 23 kts 72°
2026-04-26 16:43 49.96134 8.64198 419 ft 12 kts
2026-04-26 16:43 49.96180 8.64232 391 ft 3 kts 17°
2026-04-26 16:43 49.96201 8.64237 387 ft 1 kts 354°
2026-04-26 16:44 49.96205 8.64232 380 ft 0 kts